Hourly Weather Allenwil

Today, 24 November, Tuesday

Time Temperature Precipitation Wind Pressure Humidity
00:00 +2°C° 0 mm 1 mps 718 mmHg 81%
01:00 +2°C° 0 mm 1 mps 718 mmHg 81%
02:00 0°C° 0 mm 0 mps 718 mmHg 82%
03:00 0°C° 0 mm 0 mps 717 mmHg 82%
04:00 0°C° 0 mm 0 mps 717 mmHg 83%
05:00 0°C° 0 mm 0 mps 717 mmHg 84%
06:00 0°C° 0 mm 0 mps 717 mmHg 85%
07:00 +1°C° 0 mm 0 mps 717 mmHg 79%
08:00 +3°C° 0 mm 0 mps 717 mmHg 74%
09:00 +4°C° 0 mm 0 mps 717 mmHg 69%
10:00 +6°C° 0 mm 0 mps 717 mmHg 65%
11:00 +7°C° 0 mm 0 mps 717 mmHg 62%
12:00 +8°C° 0 mm 0 mps 716 mmHg 59%
13:00 +7°C° 0 mm 0 mps 716 mmHg 65%
14:00 +6°C° 0 mm 0 mps 715 mmHg 71%
15:00 +5°C° 0 mm 0 mps 715 mmHg 77%
16:00 +4°C° 0 mm 0 mps 715 mmHg 79%
17:00 +3°C° 0 mm 0 mps 715 mmHg 81%
18:00 +2°C° 0 mm 0 mps 715 mmHg 83%
19:00 +3°C° 0 mm 1 mps 714 mmHg 82%
20:00 +3°C° 0 mm 1 mps 714 mmHg 82%
21:00 +3°C° 0 mm 1 mps 714 mmHg 81%
22:00 +3°C° 0 mm 1 mps 714 mmHg 81%
23:00 +3°C° 0 mm 1 mps 714 mmHg 80%

Tomorrow, 25 November, Wednesday

Time Temperature Precipitation Wind Pressure Humidity
00:00 +3°C° 0 mm 1 mps 714 mmHg 80%
01:00 +3°C° 0 mm 1 mps 714 mmHg 80%
02:00 +3°C° 0 mm 1 mps 713 mmHg 80%
03:00 +3°C° 0 mm 1 mps 713 mmHg 80%
04:00 +3°C° 0 mm 1 mps 713 mmHg 80%
05:00 +3°C° 0 mm 1 mps 713 mmHg 80%
06:00 +3°C° 0 mm 1 mps 713 mmHg 80%
07:00 +5°C° 0 mm 1 mps 713 mmHg 77%
08:00 +5°C° 0 mm 0 mps 713 mmHg 74%
09:00 +6°C° 0 mm 0 mps 713 mmHg 70%
10:00 +7°C° 0 mm 0 mps 713 mmHg 68%
11:00 +10°C° 0 mm 1 mps 713 mmHg 65%
12:00 +11°C° 0 mm 1 mps 713 mmHg 62%
13:00 +9°C° 0 mm 0 mps 713 mmHg 68%
14:00 +8°C° 0 mm 0 mps 713 mmHg 74%
15:00 +7°C° 0 mm 0 mps 713 mmHg 80%
16:00 +6°C° 0 mm 0 mps 713 mmHg 81%
17:00 +5°C° 0 mm 0 mps 713 mmHg 83%
18:00 +4°C° 0 mm 0 mps 714 mmHg 84%
19:00 +4°C° 0 mm 0 mps 714 mmHg 84%
20:00 +4°C° 0 mm 0 mps 714 mmHg 84%
21:00 +4°C° 0 mm 0 mps 714 mmHg 84%
22:00 +4°C° 0 mm 0 mps 714 mmHg 83%
23:00 +4°C° 0 mm 1 mps 714 mmHg 82%

Day after tomorrow, 26 November, Thursday

Time Temperature Precipitation Wind Pressure Humidity
00:00 +4°C° 0 mm 1 mps 714 mmHg 82%
01:00 +5°C° 0 mm 1 mps 714 mmHg 81%
02:00 +4°C° 0 mm 0 mps 714 mmHg 79%
03:00 +4°C° 0 mm 0 mps 714 mmHg 78%
04:00 +3°C° 0 mm 0 mps 714 mmHg 79%
05:00 +3°C° 0 mm 0 mps 714 mmHg 79%
06:00 +3°C° 0 mm 0 mps 715 mmHg 79%
07:00 +4°C° 0 mm 0 mps 715 mmHg 76%
08:00 +5°C° 0 mm 0 mps 715 mmHg 73%
09:00 +7°C° 0 mm 0 mps 715 mmHg 69%
10:00 +8°C° 0 mm 0 mps 715 mmHg 67%
11:00 +9°C° 0 mm 0 mps 715 mmHg 64%
12:00 +11°C° 0 mm 1 mps 714 mmHg 61%
13:00 +9°C° 0 mm 0 mps 714 mmHg 67%
14:00 +8°C° 0 mm 0 mps 714 mmHg 73%
15:00 +7°C° 0 mm 0 mps 714 mmHg 79%
16:00 +6°C° 0 mm 0 mps 714 mmHg 82%
17:00 +5°C° 0 mm 0 mps 714 mmHg 85%
18:00 +4°C° 0 mm 0 mps 714 mmHg 88%
19:00 +4°C° 0 mm 0 mps 714 mmHg 88%
20:00 +3°C° 0 mm 0 mps 714 mmHg 88%
21:00 +3°C° 0 mm 0 mps 714 mmHg 88%
22:00 +3°C° 0 mm 0 mps 714 mmHg 88%
23:00 +3°C° 0 mm 0 mps 714 mmHg 88%

27 November, Friday

Time Temperature Precipitation Wind Pressure Humidity
00:00 +3°C° 0 mm 0 mps 714 mmHg 88%
01:00 +3°C° 0 mm 0 mps 713 mmHg 88%
02:00 +2°C° 0 mm 0 mps 713 mmHg 88%
03:00 +2°C° 0 mm 0 mps 713 mmHg 88%
04:00 +2°C° 0 mm 0 mps 713 mmHg 87%
05:00 +2°C° 0 mm 0 mps 713 mmHg 87%
06:00 +2°C° 0 mm 0 mps 713 mmHg 87%
07:00 +3°C° 0 mm 0 mps 713 mmHg 83%
08:00 +5°C° 0 mm 0 mps 713 mmHg 78%
09:00 +6°C° 0 mm 0 mps 713 mmHg 74%
10:00 +7°C° 0 mm 0 mps 712 mmHg 71%
11:00 +8°C° 0 mm 0 mps 712 mmHg 68%
12:00 +10°C° 0 mm 1 mps 712 mmHg 65%
13:00 +9°C° 0 mm 1 mps 712 mmHg 70%
14:00 +8°C° 0 mm 1 mps 711 mmHg 76%
15:00 +7°C° 0 mm 1 mps 711 mmHg 82%
16:00 +6°C° 0 mm 1 mps 711 mmHg 85%
17:00 +5°C° 0 mm 1 mps 711 mmHg 88%
18:00 +4°C° 0 mm 1 mps 711 mmHg 91%
19:00 +4°C° 0 mm 1 mps 711 mmHg 91%
20:00 +3°C° 0 mm 1 mps 711 mmHg 90%
21:00 +3°C° 0 mm 1 mps 711 mmHg 90%
22:00 +3°C° 0 mm 1 mps 711 mmHg 90%
23:00 +2°C° 0 mm 1 mps 711 mmHg 89%

28 November, Saturday

Time Temperature Precipitation Wind Pressure Humidity
00:00 +2°C° 0 mm 1 mps 711 mmHg 89%
01:00 +2°C° 0 mm 1 mps 711 mmHg 89%
02:00 +1°C° 0 mm 0 mps 711 mmHg 88%
03:00 +1°C° 0 mm 0 mps 711 mmHg 88%
04:00 +2°C° 0 mm 1 mps 711 mmHg 88%
05:00 +2°C° 0 mm 1 mps 710 mmHg 88%
06:00 +2°C° 0 mm 1 mps 710 mmHg 88%
07:00 +3°C° 0 mm 1 mps 710 mmHg 84%
08:00 +4°C° 0 mm 1 mps 711 mmHg 80%
09:00 +5°C° 0 mm 1 mps 711 mmHg 76%
10:00 +6°C° 0 mm 1 mps 710 mmHg 71%
11:00 +8°C° 0 mm 1 mps 710 mmHg 67%
12:00 +9°C° 0 mm 1 mps 710 mmHg 62%
13:00 +8°C° 0 mm 1 mps 710 mmHg 68%
14:00 +7°C° 0 mm 1 mps 710 mmHg 74%
15:00 +6°C° 0 mm 1 mps 709 mmHg 80%
16:00 +5°C° 0 mm 1 mps 709 mmHg 83%
17:00 +4°C° 0 mm 1 mps 709 mmHg 86%
18:00 +2°C° 0 mm 1 mps 709 mmHg 89%
19:00 +2°C° 0 mm 1 mps 710 mmHg 89%
20:00 +2°C° 0 mm 1 mps 710 mmHg 89%
21:00 +2°C° 0 mm 1 mps 710 mmHg 89%
22:00 +2°C° 0 mm 1 mps 710 mmHg 90%
23:00 +2°C° 0 mm 1 mps 710 mmHg 90%

29 November, Sunday

Time Temperature Precipitation Wind Pressure Humidity
00:00 +2°C° 0 mm 1 mps 709 mmHg 91%
01:00 +1°C° 0 mm 1 mps 709 mmHg 91%
02:00 0°C° 0 mm 0 mps 709 mmHg 92%
03:00 0°C° 0 mm 0 mps 709 mmHg 92%
04:00 0°C° 0 mm 0 mps 709 mmHg 92%
05:00 0°C° 0 mm 0 mps 709 mmHg 92%
06:00 0°C° 0 mm 0 mps 709 mmHg 92%
07:00 +1°C° 0 mm 0 mps 709 mmHg 89%
08:00 +2°C° 0 mm 0 mps 710 mmHg 85%
09:00 +3°C° 0 mm 0 mps 710 mmHg 81%
10:00 +5°C° 0 mm 1 mps 710 mmHg 77%
11:00 +6°C° 0 mm 1 mps 710 mmHg 74%
12:00 +7°C° 0 mm 1 mps 710 mmHg 70%
13:00 +7°C° 0 mm 1 mps 710 mmHg 75%
14:00 +6°C° 0 mm 1 mps 710 mmHg 80%
15:00 +5°C° 0 mm 1 mps 710 mmHg 85%
16:00 +4°C° 0 mm 1 mps 710 mmHg 88%
17:00 +3°C° 0 mm 1 mps 710 mmHg 91%
18:00 +1°C° 0 mm 0 mps 711 mmHg 94%
19:00 0°C° 0 mm 0 mps 711 mmHg 94%
20:00 0°C° 0 mm 0 mps 711 mmHg 95%
21:00 0°C° 0 mm 0 mps 711 mmHg 95%
22:00 0°C° 0 mm 0 mps 711 mmHg 95%
23:00 0°C° 0 mm 0 mps 711 mmHg 94%
Show more